EW0079 Weather Reports


time (UTC)temp
C
wind
direction
speed
KPH
gust
KPH
rain 1hr
cm
rain 24hr
cm
rain mn
cm
humidity
%
barometer
mb
20260503040012 12 0 0.0 0.0 0.00 0.00 0.00 1 1018.1
20260503033012 12 0 0.0 0.0 0.00 0.00 0.00 1 1018.2
20260503031513 12 0 0.0 0.0 0.00 0.00 0.00 1 1018.5
20260503024512 12 0 0.0 0.0 0.00 0.00 0.00 1 1018.6
20260503023012 12 92 1.6 8.0 0.00 0.00 0.00 1 1018.2
20260503021512 13 77 0.0 6.4 0.00 0.00 0.00 1 1018.2
20260503020012 13 0 0.0 0.0 0.00 0.00 0.00 1 1018.5
20260503011512 13 0 0.0 0.0 0.00 0.00 0.00 9 1018.6
20260503010012 13 0 0.0 0.0 0.00 0.00 0.00 13 1018.8
20260503001513 14 0 0.0 0.0 0.00 0.00 0.00 20 1019.4
20260502234512 14 0 0.0 0.0 0.00 0.00 0.00 18 1019.8
20260502233012 14 0 0.0 0.0 0.00 0.00 0.00 16 1019.9
20260502231512 14 0 0.0 0.0 0.00 0.00 0.00 18 1019.9
20260502230012 14 0 0.0 0.0 0.00 0.00 0.00 17 1020.0
20260502224512 14 0 0.0 0.0 0.00 0.00 0.00 17 1019.8
20260502223012 14 0 0.0 0.0 0.00 0.00 0.00 18 1020.0
20260502221512 14 0 0.0 0.0 0.00 0.00 0.00 13 1019.9
20260502220013 14 0 0.0 0.0 0.00 0.00 0.00 15 1020.0
20260502214512 14 0 0.0 0.0 0.00 0.00 0.00 17 1020.0
20260502213012 14 0 0.0 0.0 0.00 0.00 0.00 20 1020.1
20260502211511 14 0 0.0 0.0 0.00 0.00 0.00 26 1020.0
20260502210015 15 101 0.0 3.2 0.00 0.00 0.00 38 1019.8
20260502204512 15 0 0.0 0.0 0.00 0.00 0.00 50 1019.9
20260502203012 15 0 0.0 0.0 0.00 0.00 0.00 52 1019.9
20260502201512 15 0 0.0 0.0 0.00 0.00 0.00 54 1019.7
20260502200012 16 232 0.0 3.2 0.00 0.00 0.00 56 1019.7
20260502194512 16 231 0.0 3.2 0.00 0.00 0.00 58 1019.6
20260502193012 16 232 0.0 4.8 0.00 0.00 0.00 59 1019.6
20260502191513 16 249 1.6 4.8 0.00 0.00 0.00 60 1019.4
20260502190012 16 243 1.6 6.4 0.00 0.00 0.00 61 1019.3
20260502184512 17 228 4.8 12.9 0.00 0.00 0.00 60 1019.4
20260502183012 17 236 6.4 16.1 0.00 0.00 0.00 58 1019.5
20260502181512 17 241 8.0 12.9 0.00 0.00 0.00 58 1019.4
20260502163012 18 238 12.9 20.9 0.00 0.00 0.00 56 1020.0
20260502161512 18 243 12.9 22.5 0.00 0.00 0.00 54 1019.8
20260502151512 18 203 6.4 16.1 0.00 0.00 0.00 58 1020.1
20260502123012 17 120 9.7 20.9 0.00 0.00 0.00 60 1021.8
20260502121512 18 148 9.7 20.9 0.00 0.00 0.00 60 1022.0
20260502114512 18 134 6.4 19.3 0.00 0.00 0.00 60 1022.1
20260502113012 18 131 8.0 17.7 0.00 0.00 0.00 60 1022.4
20260502111512 17 127 8.0 20.9 0.00 0.00 0.00 60 1022.4
20260502110012 17 112 11.3 25.7 0.00 0.00 0.00 60 1022.6
20260502104512 17 118 11.3 22.5 0.00 0.00 0.00 59 1022.9
20260502103012 16 118 11.3 17.7 0.00 0.00 0.00 58 1022.9
20260502101512 16 112 12.9 25.7 0.00 0.00 0.00 57 1023.1
20260502071512 12 103 9.7 22.5 0.00 0.00 0.00 1 1023.0
20260502070012 12 99 8.0 19.3 0.00 0.00 0.00 1 1023.1
20260502064511 11 99 6.4 17.7 0.00 0.00 0.00 1 1023.2
20260502063012 11 100 4.8 14.5 0.00 0.00 0.00 1 1023.3
20260502060012 11 96 8.0 16.1 0.00 0.00 0.00 1 1022.9
20260502054511 11 93 8.0 16.1 0.00 0.00 0.00 1 1022.8
20260502053012 11 99 6.4 17.7 0.00 0.00 0.00 1 1022.9
20260502051511 11 98 8.0 14.5 0.00 0.00 0.00 1 1022.9
20260502050012 11 100 8.0 12.9 0.00 0.00 0.00 1 1022.8
20260502044512 11 102 6.4 14.5 0.00 0.00 0.00 1 1022.9
20260502041511 11 103 8.0 16.1 0.00 0.00 0.00 1 1022.9